Weather History for Sturgis, MI

Change the Weather History Date:

Friday, October 26, 2012

  Actual Average (KHAI) Record (KHAI)
Temperature  
Mean Temperature 47 °F -  
Max Temperature 57 °F 57 °F 80 °F (1963)
Min Temperature 37 °F 37 °F 13 °F (1962)
Degree Days  
Heating Degree Days 18    
Moisture  
Dew Point 37 °F    
Average Humidity 75    
Maximum Humidity 100    
Minimum Humidity 53    
Precipitation  
Precipitation 0.00 in - - ()
Sea Level Pressure  
Sea Level Pressure 30.16 in    
Wind  
Wind Speed 11 mph (NNW)    
Max Wind Speed 17 mph    
Max Gust Speed 24 mph    
Visibility 10 miles    
Events Rain    
Averages and records for this station are not official NWS values.
T = Trace of Precipitation, MM = Missing Value Source: NWS Daily Summary

Daily Weather History Graph

Daily Weather History Graph

Search for Another Location

Airport:

Trip Planner

Search our weather history database for the weather conditions in past years. The results will help you decide how hot, cold, wet, or windy it might be!

Date:

Astronomy

Oct. 26, 2012 Rise Set
Actual Time 8:07 AM EDT 6:43 PM EDT
Civil Twilight 7:38 AM EDT 7:11 PM EDT
Nautical Twilight 7:06 AM EDT 7:44 PM EDT
Astronomical Twilight 6:33 AM EDT 8:16 PM EDT
Moon 5:00 PM EDT (10/26) 5:00 AM EDT (10/26)
Length of Visible Light 11h 33m
Length of Day
10h 35m
Waxing Gibbous, 91% of the Moon is Illuminated
Oct 26
Waxing Gibbous
Oct 29
Full
Nov 6
Last Quarter
Nov 13
New
Nov 20
First Quarter

Hourly Weather History & Observations

Time (EDT) Temp. Windchill Dew Point Humidity Pressure Visibility Wind Dir Wind Speed Gust Speed Precip Events Conditions
12:14 AM 57.2 °F - 51.8 °F 82% 29.91 in 10.0 mi WNW 17.3 mph 23.0 mph N/A   Overcast
12:35 AM 55.4 °F - 51.8 °F 88% 29.92 in 10.0 mi WNW 11.5 mph 21.9 mph N/A   Overcast
12:54 AM 53.6 °F - 50.0 °F 88% 29.94 in 7.0 mi NW 17.3 mph 23.0 mph N/A Rain Rain
1:15 AM 51.8 °F - 46.4 °F 82% 29.96 in 10.0 mi NW 16.1 mph 24.2 mph N/A Rain Light Rain
1:35 AM 48.2 °F - 46.4 °F 93% 29.96 in 10.0 mi NW 12.7 mph 20.7 mph N/A   Overcast
1:54 AM 48.2 °F - 46.4 °F 93% 29.98 in 10.0 mi NNW 10.4 mph - N/A   Drizzle
2:15 AM 48.2 °F - 46.4 °F 93% 29.99 in 7.0 mi NW 6.9 mph - N/A Rain Heavy Rain
2:35 AM 46.4 °F 42.4 °F 44.6 °F 93% 30.00 in 5.0 mi NW 8.1 mph 17.3 mph N/A Rain Heavy Rain
2:54 AM 46.4 °F 41.9 °F 44.6 °F 93% 30.04 in 4.0 mi West 9.2 mph 17.3 mph N/A Rain Heavy Rain
3:15 AM 46.4 °F 41.1 °F 44.6 °F 93% 30.04 in 4.0 mi NW 11.5 mph 17.3 mph N/A Rain Heavy Rain
3:35 AM 44.6 °F 38.8 °F 44.6 °F 100% 30.03 in 10.0 mi NNW 11.5 mph - N/A Rain Light Rain
3:54 AM 44.6 °F 38.8 °F 44.6 °F 100% 30.04 in 10.0 mi NNW 11.5 mph - N/A Rain Rain
4:15 AM 44.6 °F 40.2 °F 42.8 °F 93% 30.06 in 10.0 mi NW 8.1 mph 18.4 mph N/A   Overcast
4:35 AM 44.6 °F 39.2 °F 42.8 °F 93% 30.06 in 10.0 mi NW 10.4 mph 17.3 mph N/A   Overcast
4:54 AM 44.6 °F 39.2 °F 42.8 °F 93% 30.08 in 10.0 mi NW 10.4 mph 16.1 mph N/A Rain Light Rain
5:15 AM 44.6 °F 40.7 °F 42.8 °F 93% 30.09 in 10.0 mi NW 6.9 mph - N/A Rain Light Rain
5:34 AM 44.6 °F 38.8 °F 41.0 °F 87% 30.10 in 10.0 mi NW 11.5 mph 20.7 mph N/A   Overcast
5:55 AM 42.8 °F 34.8 °F 39.2 °F 87% 30.08 in 10.0 mi NNW 17.3 mph 23.0 mph N/A   Overcast
6:15 AM 42.8 °F 37.0 °F 39.2 °F 87% 30.10 in 10.0 mi NW 10.4 mph - N/A   Overcast
6:34 AM 42.8 °F 37.5 °F 39.2 °F 87% 30.11 in 10.0 mi NNW 9.2 mph 18.4 mph N/A   Overcast
6:55 AM 42.8 °F 37.0 °F 39.2 °F 87% 30.13 in 10.0 mi NNW 10.4 mph - N/A   Overcast
7:15 AM 42.8 °F 36.6 °F 37.4 °F 81% 30.14 in 10.0 mi NNW 11.5 mph 21.9 mph N/A   Overcast
7:34 AM 42.8 °F 37.0 °F 37.4 °F 81% 30.17 in 10.0 mi NNW 10.4 mph 16.1 mph N/A   Overcast
7:55 AM 42.8 °F 38.6 °F 37.4 °F 81% 30.17 in 10.0 mi NNW 6.9 mph - N/A   Overcast
8:15 AM 42.8 °F 38.6 °F 39.2 °F 87% 30.17 in 10.0 mi NNW 6.9 mph - N/A   Overcast
8:55 AM 42.8 °F 36.2 °F 37.4 °F 81% 30.17 in 10.0 mi North 12.7 mph 20.7 mph N/A   Overcast
9:55 AM 42.8 °F 36.6 °F 35.6 °F 76% 30.20 in 10.0 mi NNW 11.5 mph - N/A   Overcast
10:14 AM 42.8 °F 37.0 °F 35.6 °F 76% 30.21 in 10.0 mi NW 10.4 mph - N/A   Overcast
10:35 AM 42.8 °F 36.6 °F 35.6 °F 76% 30.22 in 10.0 mi North 11.5 mph 16.1 mph N/A   Overcast
10:55 AM 44.6 °F 39.2 °F 35.6 °F 71% 30.23 in 10.0 mi North 10.4 mph - N/A   Overcast
11:14 AM 44.6 °F 38.4 °F 35.6 °F 71% 30.23 in 10.0 mi NNW 12.7 mph 16.1 mph N/A   Overcast
11:35 AM 44.6 °F 38.4 °F 35.6 °F 71% 30.24 in 10.0 mi NNW 12.7 mph - N/A   Mostly Cloudy
11:55 AM 46.4 °F 40.7 °F 35.6 °F 66% 30.24 in 10.0 mi NNW 12.7 mph 17.3 mph N/A   Scattered Clouds
12:15 PM 46.4 °F 41.9 °F 33.8 °F 62% 30.24 in 10.0 mi North 9.2 mph - N/A   Mostly Cloudy
12:35 PM 46.4 °F 41.5 °F 33.8 °F 62% 30.24 in 10.0 mi NNW 10.4 mph 17.3 mph N/A   Scattered Clouds
12:54 PM 46.4 °F 41.5 °F 35.6 °F 66% 30.24 in 10.0 mi North 10.4 mph - N/A   Scattered Clouds
1:15 PM 46.4 °F 40.7 °F 33.8 °F 62% 30.24 in 10.0 mi North 12.7 mph 16.1 mph N/A   Scattered Clouds
1:35 PM 48.2 °F - 33.8 °F 58% 30.23 in 10.0 mi North 5.8 mph 11.5 mph N/A   Scattered Clouds
1:54 PM 48.2 °F - 33.8 °F 58% 30.23 in 10.0 mi North 9.2 mph 20.7 mph N/A   Scattered Clouds
2:15 PM 48.2 °F - 33.8 °F 58% 30.22 in 10.0 mi North 9.2 mph 18.4 mph N/A   Clear
2:35 PM 48.2 °F - 33.8 °F 58% 30.22 in 10.0 mi North 10.4 mph - N/A   Clear
2:54 PM 46.4 °F 40.7 °F 33.8 °F 62% 30.22 in 10.0 mi NNW 12.7 mph 18.4 mph N/A   Clear
3:15 PM 46.4 °F 41.5 °F 33.8 °F 62% 30.23 in 10.0 mi NNW 10.4 mph - N/A   Clear
3:35 PM 48.2 °F - 33.8 °F 58% 30.23 in 10.0 mi North 5.8 mph - N/A   Scattered Clouds
3:54 PM 48.2 °F - 33.8 °F 58% 30.22 in 10.0 mi North 6.9 mph - N/A   Clear
4:15 PM 48.2 °F - 33.8 °F 58% 30.21 in 10.0 mi NNE 9.2 mph - N/A   Clear
4:35 PM 48.2 °F - 33.8 °F 58% 30.21 in 10.0 mi North 10.4 mph - N/A   Clear
4:55 PM 46.4 °F 41.5 °F 30.2 °F 53% 30.21 in 10.0 mi North 10.4 mph - N/A   Clear
5:15 PM 46.4 °F 42.9 °F 32.0 °F 57% 30.22 in 10.0 mi North 6.9 mph - N/A   Clear
5:34 PM 46.4 °F 41.5 °F 33.8 °F 62% 30.21 in 10.0 mi NNW 10.4 mph - N/A   Clear
5:55 PM 46.4 °F 43.5 °F 30.2 °F 53% 30.21 in 10.0 mi North 5.8 mph - N/A   Clear
6:15 PM 46.4 °F 42.4 °F 30.2 °F 53% 30.20 in 10.0 mi North 8.1 mph 16.1 mph N/A   Clear
6:34 PM 44.6 °F 41.4 °F 30.2 °F 57% 30.21 in 10.0 mi North 5.8 mph - N/A   Clear
6:55 PM 44.6 °F 42.2 °F 30.2 °F 57% 30.21 in 10.0 mi North 4.6 mph - N/A   Clear
7:15 PM 42.8 °F 41.1 °F 30.2 °F 61% 30.22 in 10.0 mi NNE 3.5 mph - N/A   Clear
7:34 PM 42.8 °F 40.1 °F 30.2 °F 61% 30.22 in 10.0 mi NNE 4.6 mph - N/A   Clear
7:55 PM 42.8 °F - 30.2 °F 61% 30.23 in 10.0 mi Calm Calm - N/A   Clear
8:15 PM 39.2 °F - 30.2 °F 70% 30.23 in 10.0 mi Calm Calm - N/A   Clear
8:34 PM 39.2 °F 37.0 °F 30.2 °F 70% 30.23 in 10.0 mi NW 3.5 mph - N/A   Clear
9:14 PM 39.2 °F 35.9 °F 32.0 °F 75% 30.23 in 10.0 mi NNW 4.6 mph - N/A   Clear
9:35 PM 37.4 °F - 32.0 °F 81% 30.23 in 10.0 mi Calm Calm - N/A   Clear
10:14 PM 37.4 °F - 33.8 °F 87% 30.23 in 10.0 mi Calm Calm - N/A   Clear
10:35 PM 37.4 °F - 33.8 °F 87% 30.24 in 10.0 mi Calm Calm - N/A   Clear
10:55 PM 39.2 °F 37.0 °F 33.8 °F 81% 30.24 in 10.0 mi North 3.5 mph - N/A   Clear
11:14 PM 39.2 °F 37.0 °F 33.8 °F 81% 30.24 in 10.0 mi North 3.5 mph - N/A   Clear
11:35 PM 39.2 °F 35.9 °F 33.8 °F 81% 30.24 in 10.0 mi North 4.6 mph - N/A   Clear
11:54 PM 39.2 °F 35.9 °F 33.8 °F 81% 30.25 in 10.0 mi North 4.6 mph - N/A   Clear